Cosmos 1844 - Orbit

View from above orbital plane
View from above orbital plane
View from above satellite
View from above satellite

Ground track
Ground track

The orbit data is extracted from the following two-line orbital elements,

1 17973U 87041A   13168.15694069 -.00000209  00000-0 -84573-4 0  4906
2 17973 070.9006 112.3899 0029697 161.8355 289.8440 14.13870482346620
Epoch (UTC): 17 June 2013 03:45:59
Eccentricity: 0.0029697
inclination: 70.9006°
perigee height: 825 km
apogee height: 867 km
right ascension of ascending node: 112.3899°
argument of perigee: 161.8355°
revolutions per day: 14.13870482
mean anomaly at epoch: 289.8440°
orbit number at epoch: 34662

The dashed part of the orbit path shows where the satellite is in the earth's shadow,  

Developed and maintained by Chris Peat, Heavens-Above GmbH. Please read the updated FAQ before sending e-mail. Imprint. DLR